Location: Monteux
(44.0348°N, 4.9972°E)
Time: 23:37:50
(UTC+00:00)

Cosmos 2341 Rocket - Pass Details

Date: 26 April 2021
Orbit: 969 x 1003 km, 82.9° (Epoch: 14 May)

Event Time Altitude Azimuth Distance (km) Brightness Sun altitude
Rises 00:48:35 0° 345° (NNW) 3,724 7.8 -30.2°
Reaches altitude 10° 00:51:13 10° 339° (NNW) 2,775 6.9 -30.1°
Enters shadow 00:56:26 41° 288° (WNW) 1,418 4.7 -29.7°
